Regional Weather Roundup
Issued by NWS Upton, NY

Current Version | Previous Version | Text Only | Print | Product List | Glossary On
Versions: 1 2 3 4 5 6 7 8 9 10 11 12 13 14 15 16 17 18 19 20 21 22 23 24 25 26
000
ASUS41 KOKX 192205
RWROKX

REGIONAL WEATHER ROUNDUP
NATIONAL WEATHER SERVICE NEW YORK NY
600 PM EDT SAT APR 19 2014

NOTE: "FAIR" INDICATES FEW OR NO CLOUDS BELOW 12,000 FEET WITH NO
SIGNIFICANT WEATHER AND/OR OBSTRUCTIONS TO VISIBILITY.

NYZ071-072-176-178-NJZ106-104-192300-
NEW YORK CITY METRO AREA


CITY           SKY/WX    TMP DP  RH WIND       PRES   REMARKS
CENTRAL PARK   MOSUNNY   66  22  18 VRB5      30.26R
LAGUARDIA APRT PTSUNNY   64  24  21 E12       30.24R
KENNEDY INTL   PTSUNNY   66  21  18 NE9       30.24R
NEWARK/LIBERTY PTSUNNY   67  20  16 NW10G18   30.23R
TETERBORO      MOSUNNY   67  23  19 NE8       30.23R
$$

NYZ177-179-078>081-192300-
LONG ISLAND NEW YORK

CITY           SKY/WX    TMP DP  RH WIND       PRES   REMARKS
FARMINGDALE    PTSUNNY   62  25  24 NE12      30.24R
ISLIP          PTSUNNY   63  24  22 N12       30.23R
SHIRLEY        PTSUNNY   62  27  26 NW14      30.25R
WESTHAMPTON    PTSUNNY   63  26  24 NW12      30.24S
MONTAUK POINT    N/A     60  31  33 W3        30.24R
$$

NYZ052-065-067-192300-
HUDSON VALLEY

CITY           SKY/WX    TMP DP  RH WIND       PRES   REMARKS
WHITE PLAINS   SUNNY     62  18  18 N10G20    30.24R
NEWBURGH       MOSUNNY   63  25  23 NE14G23   30.26R
MONTGOMERY     MOSUNNY   62  24  23 NE12      30.25R
POUGHKEEPSIE   MOSUNNY   61  24  24 N14       30.26R
ALBANY         MOSUNNY   58  24  27 N13       30.30R
$$

NJZ001-105-106-008-010-013-015-019>022-104-192300-
NEW JERSEY

CITY           SKY/WX    TMP DP  RH WIND       PRES   REMARKS
NEWARK/LIBERTY PTSUNNY   67  20  16 NW10G18   30.23R
TETERBORO      MOSUNNY   67  23  19 NE8       30.23R
CALDWELL       MOSUNNY   65  19  17 VRB6G20   30.25R
MORRISTOWN     SUNNY     66  18  15 NE13G20   30.24S
SOMERVILLE     MOSUNNY   66  17  15 N9        30.23R
LINDEN         FAIR      68  22  17 N9        30.25S
SUSSEX         MOSUNNY   64  20  18 N13G20    30.26R
ANDOVER          N/A     62  22  21 MISG      30.26R
TRENTON        PTSUNNY   66  21  18 N9        30.24R
MILLVILLE      CLOUDY    59  45  59 SE8       30.25R
ATLANTIC CITY  CLOUDY    56  34  43 SE8       30.26R
WRIGHTSTOWN    PTSUNNY   64  27  24 VRB3      30.22S
TOMS RIVER     CLOUDY    61  30  31 SE5       30.25S
BELMAR         PTSUNNY   63  25  23 E9        30.24S
$$

PAZ047>061-062-071-192300-
EASTERN PENNSYLVANIA

CITY           SKY/WX    TMP DP  RH WIND       PRES   REMARKS
PHILADELPHIA   CLOUDY    66  21  18 VRB5      30.26R
ALLENTOWN      SUNNY     64  22  20 N9        30.26R
SCRANTON       MOSUNNY   58  21  24 N10G24    30.29R
$$

CTZ002-004>006-009-010-012-RIZ004-006-007-MAZ004-011-015-192300-
SOUTHERN NEW ENGLAND
 IN CT

CITY           SKY/WX    TMP DP  RH WIND       PRES   REMARKS
BRADLEY INTL   PTSUNNY   62  24  23 N13G23    30.23R
HARTFORD       SUNNY     62  27  26 N13       30.23R
DANBURY        SUNNY     60  25  26 N13       30.26R
WTRBRY/OXFORD  MOSUNNY   59  30  33 N12G24    30.26R
BRIDGEPORT     MOSUNNY   64  26  23 N13G22    30.24R
MERIDEN        SUNNY     63  28  26 N8        30.24R
NEW HAVEN      MOSUNNY   65  28  24 N13G18    30.23R
CHESTER        FAIR      63  27  25 NW12G20   30.23S
GROTON         MOSUNNY   64  29  26 N10G18    30.22R
WILLIMANTIC    SUNNY     63  23  21 NW14      30.23R

 IN RI

CITY           SKY/WX    TMP DP  RH WIND       PRES   REMARKS
PROVIDENCE     PTSUNNY   62  26  25 N13G23    30.22R
BLOCK ISLAND   MOSUNNY   59  30  33 E5        30.23R
WESTERLY       MOSUNNY   57  32  38 SE8       30.23R

 IN MA

CITY           SKY/WX    TMP DP  RH WIND       PRES   REMARKS
BOSTON         PTSUNNY   60  27  28 N14G24    30.24R
WORCESTER      SUNNY     56  26  31 N9G24     30.24R
WESTFIELD      SUNNY     61  26  26 N17       30.24R
PROVINCETOWN   SUNNY     50  37  62 MISG      30.25R
NANTUCKET      MOSUNNY   55  32  41 NE3       30.24R
$$

ANZ330-335-338-340-345-350-353-355-192300-
COASTAL MARINE OBSERVATIONS


STATION/POSITION TIME  SKY/WX   TEMP    WIND        PRES    VSBY  WAVE
                                AIR SEA DIR/SP/G                  HT/PER
                 (UTC)          (F)     (DEG/KT/KT) (MB)    (MI)  (FT/S)
NY HARB ENTRANCE 2200            50 46  360/  8/  8 1024.1
4S FIRE IS       2100               47                N/A           3/10
23SW MTP         2200            47 44  240/  8/  8 1023.5          3/10
HUDSON CANYON    2100            46 45  300/  4/  4 1024.4          4/10
EXECUTION ROCKS  2200            56 32   70/  8/ 12   N/A
WESTERN LI SOUND 2200            57     360/  8/ 10   N/A           1
CENTRAL LI SOUND 2100            55 43  320/  6/ 10   N/A           1
EASTERN LI SOUND NOT AVBL
ROBBINS REEF     2200            64      30/ 13/ 15   N/A
$$


>>>>>>>>>>>>>>>>>>>>>>>>>>>> KEY <<<<<<<<<<<<<<<<<<<<<<<<<<<
>                                                          <
>     SKY/WX - SKY CONDITION/PRESENT WEATHER               <
>     TMP    - TEMPERATURE IN FAHRENHEIT                   <
>     DP     - DEWPOINT IN FAHRENHEIT                      <
>     RH     - RELATIVE HUMIDITY IN PERCENT                <
>     WIND   - DIRECTION AND SPEED IN MPH                  <
>     PRES   - MEAN SEA LEVEL PRESSURE IN INCHES OF HG     <
>     WCI    - WIND CHILL INDEX                            <
>     VSB    - VISIBILITY IN MILES                         <
>     HX     - HEAT INDEX                                  <
>     TC     - TEMPERATURE IN CELSIUS                      <
>     VRB    - VARIABLE WIND DIRECTION                     <
>                                                          <
>>>>>>>>>>>>>>>>>>>>>>>>>>>> KEY <<<<<<<<<<<<<<<<<<<<<<<<<<<





USA.gov is the U.S. government's official web portal to all federal, state and local government web resources and services.